User: anonymous   Login
Location: Unspecified
(0.0000°N, 0.0000°E)
Time: 03:01:47
(UTC+00:00)
Language:

Explorer 11/Cluster Stage 4 - Orbit

View from above orbital plane
View from above orbital plane
View from above satellite
View from above satellite

Ground track
Ground track

The orbit data is extracted from the following two-line orbital elements,

1   107U 61013A   18267.93024727 +.00000670 +00000-0 +72812-4 0  9994
2   107 028.7858 147.2705 0547950 083.5745 282.6899 14.08649724877096
Epoch (UTC): 24 September 2018 22:19:33
Eccentricity: 0.0547950
inclination: 28.7858°
perigee height: 467 km
apogee height: 1261 km
right ascension of ascending node: 147.2705°
argument of perigee: 83.5745°
revolutions per day: 14.08649724
mean anomaly at epoch: 282.6899°
orbit number at epoch: 87709

The dashed part of the orbit path shows where the satellite is in the earth's shadow,  

DLR